Regional Weather Roundup
Issued by NWS

Home | Current Version | Previous Version | Graphics & Text | Print | Product List | Glossary Off
Versions: 1 2 3 4 5 6 7 8 9 10 11 12 13 14 15 16 17 18 19 20 21 22 23 24 25 26 27 28 29 30 31 32 33 34 35 36 37 38 39 40 41 42 43 44 45 46 47 48 49 50

000
ASUS43 KDMX 131007
RWRIA

WEATHER ROUNDUP FOR IOWA
NATIONAL WEATHER SERVICE DES MOINES IA
500 AM CDT SUN JUL 13 2014

NOTE: "FAIR" INDICATES FEW OR NO CLOUDS BELOW 12,000 FEET WITH NO
SIGNIFICANT WEATHER AND/OR OBSTRUCTIONS TO VISIBILITY.

* - THESE STATIONS ARE NOT NWS STATIONS...THUS NOT UNDER NWS
QUALITY CONTROL.  THEY ALSO DO NOT REPORT WEATHER SUCH
AS PRECIPITATION OR FOG.

IAZ001>003-012>014-020>022-031>034-043>046-131100-
   NORTHWEST IOWA

CITY           SKY/WX    TMP DP  RH WIND       PRES   REMARKS
CARROLL *      CLEAR     63  63 100 CALM      30.02S FOG
CHEROKEE *     PTCLDY    61  61 100 CALM      30.02F FOG
DENISON *      FOG       63  63 100 CALM      30.02S VSB 0
LE MARS *      CLEAR     63  63 100 CALM      30.03S
ORANGE CITY *  CLEAR     64  63  94 CALM      30.03S
SHELDON *      CLEAR     61  61 100 CALM      30.01S FOG
SIOUX CITY     CLEAR     63  62  97 W3        30.03S
SPENCER        CLEAR     62  60  93 SW6       30.01S
STORM LAKE *   FOG       61  61 100 SW7       30.04S VSB 0
$$

IAZ055>058-069>071-079>083-090>094-131100-
   SOUTHWEST IOWA

CITY           SKY/WX    TMP DP  RH WIND       PRES   REMARKS
ATLANTIC *     PTCLDY    63  63 100 S6        30.02S FOG
AUDUBON *      CLEAR     66  64  94 CALM      30.04R
CLARINDA *     CLEAR     68  68 100 N3        30.04R
COUNCIL BLFS *   N/A     66  66 100 SW3       30.03R FOG
CRESTON *      CLEAR     64  64 100 CALM      30.03S FOG
HARLAN  *      CLEAR     61  61 100 CALM      30.06S
LAMONI         CLOUDY    69  68  96 CALM      30.02R FOG
RED OAK *      MOCLDY    66  66 100 CALM      30.03R FOG
SHENANDOAH *   CLEAR     68  66  94 CALM      30.03S FOG
$$

IAZ047>049-059>061-072>074-084-131100-
   CENTRAL IOWA

CITY           SKY/WX    TMP DP  RH WIND       PRES   REMARKS
AMES           PTCLDY    64  63  96 CALM      30.00R
ANKENY *       FOG       63  63 100 CALM      30.00R VSB 1/4
CHARITON *     FOG       66  66 100 W5        30.01S VSB 1
DES MOINES     FOG       67  65  93 W3        30.00R VSB 1/2
GRINNELL*      CLOUDY    66  64  94 W3        30.00R FOG
KNOXVILLE *    CLEAR     64  64 100 W3        29.99R FOG
MARSHALLTOWN   FOG       63  63 100 SW3       29.99R VSB 1/4
PELLA *        MOCLDY    66  66 100 CALM      30.01S FOG
PERRY *          N/A     63  63 100 CALM      30.01S FOG
$$

IAZ004>006-015-016-023>025-035-036-131100-
   NORTH CENTRAL IOWA

CITY           SKY/WX    TMP DP  RH WIND       PRES   REMARKS
ALGONA *       CLEAR     64  64 100 SW7       30.00S
CLARION *      FOG       59  59 100 SW3       30.00R VSB 1/4
ESTHERVILLE    CLEAR     63  62  97 SW7       29.99S
FORT DODGE *   CLOUDY    61  61 100 CALM      30.01S VSB 1/4
MASON CITY     CLEAR     63  63 100 W7        29.99S
FOREST CITY *  CLEAR     61  61 100 CALM      29.99S FOG
IOWA FALLS *   FOG       61  61 100 CALM      30.01R VSB 1/2
$$

IAZ007>011-017>019-026>030-037>042-050>054-066-131100-
   NORTHEAST IOWA

CITY           SKY/WX    TMP DP  RH WIND       PRES   REMARKS
CEDAR RAPIDS   CLOUDY    66  65  96 W8        29.96S
CHARLES CITY * FOG       61  61 100 W5        29.98R VSB 1/4
CLINTON *      CLOUDY    63  63 100 W6        29.98R
DECORAH *        N/A    N/A N/A N/A MISG        N/A
DUBUQUE        CLOUDY    64  64 100 W6        29.96R
MONTICELLO *   CLOUDY    66  66 100 W8        29.96R
OELWEIN *      FOG       64  64 100 W5        29.98R VSB<1/4
WATERLOO       FOG       62  61  96 CALM      29.97R VSB 1/2
$$

IAZ064-065-067-068-078-131100-
   EAST CENTRAL IOWA

CITY           SKY/WX    TMP DP  RH WIND       PRES   REMARKS
DAVENPORT        N/A     65  64  97 W5        29.96R
IOWA CITY      CLOUDY    67  67 100 W6        29.98R
MT. PLEASANT * CLOUDY    68  66  94 W3        29.98S
MUSCATINE *    CLOUDY    68  66  94 W5        29.96S
QUAD CITIES    CLOUDY    66  64  93 W3        29.95S
$$

IAZ062-063-075>077-085>089-095>099-131100-
   SOUTHEAST IOWA

CITY           SKY/WX    TMP DP  RH WIND       PRES   REMARKS
BURLINGTON     CLOUDY    68  67  96 CALM      29.97R
FAIRFIELD *    CLEAR     66  64  94 NW5       29.98S
FORT MADISON * CLEAR     70  70 100 CALM      29.98F
KEOKUK *       CLOUDY    72  70  94 W3        29.97S
OSKALOOSA *    CLOUDY    66  66 100 CALM      29.99S FOG
CENTERVILLE *  MOCLDY    68  68 100 CALM      30.02R
OTTUMWA        CLOUDY    65  64  97 NW3       29.98F FOG
WASHINGTON *   CLEAR     66  66 100 NW5       29.98S
$$

ABBREVIATIONS USED IN REMARKS
   TC - TEMPERATURES IN CELSIUS
  WCI - WIND CHILL INDEX
   HX - HEAT INDEX
  VSB - VISIBILITY
$$




USA.gov is the U.S. government's official web portal to all federal, state and local government web resources and services.